Regional Weather Roundup
Issued by NWS Charleston, SC

Current Version | Previous Version | Text Only | Print | Product List | Glossary Off
Versions: 1 2 3 4 5 6 7 8 9 10 11 12 13 14 15 16 17 18 19 20 21 22 23 24 25 26 27 28 29 30 31 32 33 34 35 36 37 38 39 40 41 42 43 44 45 46 47 48 49 50

000
ASUS42 KCHS 252212
RWRCHS

REGIONAL WEATHER ROUNDUP
NATIONAL WEATHER SERVICE CHARLESTON SC
600 PM EDT SAT APR 25 2015

NOTE: "FAIR" INDICATES FEW OR NO CLOUDS BELOW 12,000 FEET WITH NO
SIGNIFICANT WEATHER AND/OR OBSTRUCTIONS TO VISIBILITY.

NOT ALL STATIONS ARE QUALITY CONTROLLED BY THE NATIONAL
WEATHER SERVICE. USE DATA WITH CAUTION...ESPECIALLY
DEWPOINT OBSERVATIONS.

SCZ027-030-031-034>040-042>050-252300-
...SOUTHEAST SOUTH CAROLINA...

CITY           SKY/WX    TMP DP  RH WIND       PRES   REMARKS
N CHARLESTON   MOSUNNY   75  67  76 SW10      29.68F
WATERFRONT PRK   N/A     73 N/A N/A SW14        N/A
MOUNT PLEASANT MOCLDY    73  70  88 MISG      29.70S
PINOPOLIS      NOT AVBL
MONCKS CORNER  FAIR      77  68  73 SW10      29.67F
SUMMERVILLE    MOCLDY    77  70  78 S3        29.68F
BEAUFORT MCAS  MOSUNNY   79  68  69 SW13      29.69F
BEAUFORT ARPT  MOCLDY    77  72  83 SW3       29.70F HAZE
HILTON HEAD IS MOSUNNY   77  72  83 S7        29.72F
WALTERBORO     NOT AVBL
ALLENDALE      CLOUDY    77  70  78 SW5       29.68S

...SOUTHERN MIDLANDS AND PEE DEE...

CITY           SKY/WX    TMP DP  RH WIND       PRES   REMARKS
GEORGETOWN     NOT AVBL
KINGSTREE      NOT AVBL
ORANGEBURG     CLOUDY    77  66  68 W13       29.67F
BARNWELL       MOCLDY    79  70  73 SW9       29.68S
AIKEN          MOCLDY    73  63  68 W6        29.71F
MANNING        MOCLDY    72  52  49 SW5       29.66F
COLUMBIA       PTSUNNY   75  64  69 W12G18    29.66F
SUMTER         PTSUNNY   73  66  79 SW9       29.64F
FLORENCE       CLOUDY    70  64  81 S8        29.66F
MYRTLE BEACH   CLOUDY    70  64  83 S17       29.70F
N MYRTLE BEACH CLOUDY    69  64  84 SW16      29.68F

$$

GAZ063-065-086>088-099>101-113>116-118-119-134>141-150-252300-
...SOUTHEAST GEORGIA...

CITY           SKY/WX    TMP DP  RH WIND       PRES   REMARKS
SAVANNAH ARPT  PTSUNNY   79  69  71 SW5       29.70F
HUNTER AAF     LGT RAIN  82  73  74 SW6       29.67F
FORT STEWART   PTSUNNY   82  70  66 SW8       29.68S
STATESBORO       N/A     80  70  73 W6        29.69F
SYLVANIA       PTCLDY    78  70  78 W6        29.70S
CLAXTON        FAIR      81  72  74 SW5       29.68F HAZE

...CSRA...CENTRAL AND FAR SOUTHEAST GEORGIA...

CITY           SKY/WX    TMP DP  RH WIND       PRES   REMARKS
THOMSON        MOSUNNY   79  71  77 SW8       29.71F
AUGUSTA-BUSH   PTSUNNY   78  67  68 W10       29.66F
AUGUSTA-DANIEL PTSUNNY   78  67  68 VRB6      29.67F
SWAINSBORO     NOT AVBL
VIDALIA        PTSUNNY   82  72  69 SW6       29.69S
EASTMAN        FAIR      82  73  72 SW6       29.68F
HAZLEHURST     FAIR      85  71  63 SW8G20    29.68F HX  91
ALMA           CLOUDY    82  70  66 SW12G17   29.71S
WAYCROSS       MOSUNNY   84  76  76 SW9       29.72S HX  94
JESUP          MOCLDY    86  73  66 SW10G20   29.71F HX  93
BAXLEY         PTSUNNY   84  72  65 SW8       29.69F
BRUNSWICK      PTSUNNY   82  70  65 SW14G24   29.73F
SAINT SIMONS   CLOUDY    80  70  71 SW14G29   29.73S

$$

SCZ027-028-034-036>038-045-046-048>050-GAZ119-141-252300-
...LAKE AND SUPPLEMENTAL COASTAL OBSERVATIONS...

STATION/POSITION TIME  TEMP    WIND        PRES    WAVE   SWELL
                       AIR SEA DIR/SP/G            HT/PER HT/PER/DIR
                 (UTC) (F)     (DEG/KT/KT) (MB)    (FT/S) (FT/S/D)
UPR LAKE MARION  NOT AVBL
WINYAH BAY       NOT AVBL
LAKE MURRAY      2100   70     250/ 11/ 15 1004.7F
ACE BASIN NERRS  NOT AVBL
FORT PULASKI     2100   75 70  190/  6/ 10 1006.7F
SAPELO ISLAND    2100   80     240/ 19     1006.0F

$$

ANZ835-935-AMZ111-154-330-350-352-354-370-450-454-472-252300-
...C-MAN AND BUOY OBSERVATIONS...

STATION/POSITION TIME  TEMP    WIND        PRES    WAVE   SWELL
                       AIR SEA DIR/SP/G            HT/PER HT/PER/DIR
                 (UTC) (F)     (DEG/KT/KT) (MB)    (FT/S) (FT/S/D)
BUOY 41004       2150   74 72  210/ 17/ 21 1005.4F   5/ 6   2/10
BUOY 41008       2150   72 69  210/ 12/ 14 1006.8R   3/ 5   2/210/15
FOLLY BEACH CMAN 2200   71     220/ 13/ 16 1005.8F
CAPERS NEARSHORE 2108   70     220/ 17/ 25 1005.9F
FRIPP NEARSHORE  2100   71     220/ 12/ 14 1006.0F


STATION/POSITION TIME  TEMP    WIND        PRES    WAVE   SWELL
                       AIR SEA DIR/SP/G            HT/PER HT/PER/DIR
                 (UTC) (F)     (DEG/KT/KT) (MB)    (FT/S) (FT/S/D)
5E ST. MARYS GA  2121      70                N/A     2/14   2/100/14
FRYING PAN BUOY  2150   72 71  190/ 21/ 25 1006.2F   5/ 5   2/100/ 9
BUOY 41025       2150   64 70  290/ 10/ 14 1007.9R   3/ 9   2/ 30/ 9
CAPE LOOKOUT NC  2200   61     140/  4/  4 1006.4F
BUOY 41002       2150   69 70  200/ 19/ 23 1009.7F   5/ 8   3/ 40/ 8
BUOY 41010       2120   79 80  200/ 16/ 19 1010.7F
ST AUGUSTINE FL  2200   72 70  150/  5/  6 1009.0R


$$



USA.gov is the U.S. government's official web portal to all federal, state and local government web resources and services.